| time (UTC) | temp F | wind direction | speed MPH | gust MPH | rain 1hr in | rain 24hr in | rain mn in | humidity % | barometer mb |
| 20260510070044 | 59 | 0 | 0.0 | 0.0 | 0.00 | 0.25 | 0.00 | 67 | 1015.5 |
| 20260510064556 | 59 | 0 | 0.0 | 2.0 | 0.00 | 0.31 | 0.00 | 68 | 1015.5 |
| 20260510063044 | 58 | 0 | 1.0 | 4.0 | 0.00 | 0.31 | 0.00 | 68 | 1015.3 |
| 20260510061546 | 56 | 0 | 0.0 | 1.0 | 0.00 | 0.31 | 0.00 | 68 | 1015.3 |
| 20260510060040 | 56 | 0 | 0.0 | 4.0 | 0.00 | 0.31 | 0.00 | 68 | 1015.4 |
| 20260510054534 | 56 | 284 | 1.0 | 4.0 | 0.00 | 0.31 | 0.00 | 68 | 1015.1 |
| 20260510053035 | 56 | 0 | 0.0 | 0.0 | 0.00 | 0.31 | 0.00 | 67 | 1015.0 |
| 20260510051534 | 56 | 0 | 0.0 | 2.0 | 0.00 | 0.31 | 0.00 | 67 | 1014.9 |
| 20260510050039 | 56 | 281 | 0.0 | 4.0 | 0.00 | 0.31 | 0.00 | 67 | 1015.0 |
| 20260510044538 | 56 | 0 | 0.0 | 0.0 | 0.00 | 0.31 | 0.00 | 67 | 1015.0 |
| 20260510043034 | 56 | 0 | 0.0 | 0.0 | 0.00 | 0.31 | 0.00 | 67 | 1015.0 |
| 20260510041536 | 57 | 0 | 0.0 | 0.0 | 0.00 | 0.31 | 0.00 | 66 | 1014.8 |
| 20260510040039 | 57 | 0 | 0.0 | 0.0 | 0.00 | 0.31 | 0.00 | 66 | 1014.7 |
| 20260510034544 | 57 | 0 | 0.0 | 0.0 | 0.00 | 0.31 | 0.00 | 66 | 1014.9 |
| 20260510033038 | 57 | 0 | 0.0 | 0.0 | 0.00 | 0.31 | 0.00 | 65 | 1014.7 |
| 20260510031536 | 57 | 0 | 0.0 | 2.0 | 0.00 | 0.31 | 0.00 | 65 | 1014.7 |
| 20260510030034 | 57 | 279 | 0.0 | 4.0 | 0.00 | 0.31 | 0.00 | 64 | 1014.6 |
| 20260510024544 | 58 | 0 | 0.0 | 0.0 | 0.00 | 0.31 | 0.00 | 64 | 1014.6 |
| 20260510023038 | 59 | 0 | 0.0 | 0.0 | 0.00 | 0.31 | 0.00 | 64 | 1014.6 |
| 20260510021538 | 60 | 0 | 0.0 | 0.0 | 0.00 | 0.31 | 0.00 | 64 | 1014.6 |
| 20260510020033 | 61 | 0 | 0.0 | 0.0 | 0.00 | 0.31 | 0.00 | 64 | 1014.6 |
| 20260510014539 | 61 | 0 | 0.0 | 0.0 | 0.00 | 0.31 | 0.00 | 64 | 1014.4 |
| 20260510013042 | 60 | 0 | 0.0 | 0.0 | 0.00 | 0.31 | 0.00 | 64 | 1014.4 |
| 20260510011533 | 60 | 0 | 0.0 | 2.0 | 0.00 | 0.31 | 0.00 | 64 | 1014.6 |
| 20260510010038 | 60 | 0 | 0.0 | 3.0 | 0.00 | 0.31 | 0.00 | 65 | 1014.6 |
| 20260510004537 | 60 | 0 | 0.0 | 0.0 | 0.00 | 0.31 | 0.00 | 64 | 1014.9 |
| 20260510003044 | 60 | 0 | 0.0 | 0.0 | 0.00 | 0.31 | 0.00 | 64 | 1014.9 |
| 20260510001532 | 60 | 0 | 0.0 | 0.0 | 0.00 | 0.31 | 0.00 | 64 | 1014.9 |
| 20260510000033 | 60 | 0 | 0.0 | 0.0 | 0.00 | 0.31 | 0.00 | 64 | 1014.8 |
| 20260509234555 | 60 | 0 | 0.0 | 0.0 | 0.00 | 0.31 | 0.00 | 63 | 1015.1 |
| 20260509233045 | 60 | 0 | 0.0 | 0.0 | 0.00 | 0.31 | 0.00 | 63 | 1015.2 |
| 20260509231540 | 60 | 0 | 0.0 | 0.0 | 0.00 | 0.31 | 0.00 | 62 | 1015.3 |
| 20260509230032 | 60 | 0 | 0.0 | 0.0 | 0.00 | 0.31 | 0.00 | 62 | 1015.4 |
| 20260509224537 | 61 | 0 | 0.0 | 2.0 | 0.00 | 0.31 | 0.00 | 61 | 1015.3 |
| 20260509223038 | 61 | 202 | 0.0 | 3.0 | 0.00 | 0.31 | 0.00 | 61 | 1015.3 |
| 20260509221537 | 62 | 0 | 1.0 | 2.0 | 0.00 | 0.31 | 0.00 | 60 | 1015.3 |
| 20260509220038 | 62 | 0 | 0.0 | 2.0 | 0.00 | 0.31 | 0.00 | 59 | 1015.2 |
| 20260509214533 | 63 | 0 | 1.0 | 2.0 | 0.00 | 0.31 | 0.31 | 58 | 1015.1 |
| 20260509213039 | 63 | 0 | 0.0 | 1.0 | 0.00 | 0.31 | 0.31 | 57 | 1015.0 |
| 20260509211544 | 64 | 134 | 1.0 | 5.0 | 0.00 | 0.31 | 0.31 | 57 | 1014.9 |
| 20260509210048 | 64 | 49 | 2.0 | 5.0 | 0.00 | 0.31 | 0.31 | 56 | 1014.8 |
| 20260509204537 | 64 | 214 | 4.0 | 13.0 | 0.00 | 0.31 | 0.31 | 56 | 1014.6 |
| 20260509203041 | 64 | 0 | 0.0 | 5.0 | 0.00 | 0.31 | 0.31 | 55 | 1014.6 |
| 20260509201550 | 64 | 92 | 2.0 | 4.0 | 0.00 | 0.31 | 0.31 | 54 | 1014.4 |
| 20260509200039 | 65 | 87 | 1.0 | 6.0 | 0.00 | 0.31 | 0.31 | 52 | 1014.3 |
| 20260509194537 | 66 | 108 | 3.0 | 6.0 | 0.00 | 0.31 | 0.31 | 49 | 1014.1 |
| 20260509193044 | 67 | 181 | 5.0 | 13.0 | 0.00 | 0.31 | 0.31 | 47 | 1013.9 |
| 20260509191543 | 67 | 215 | 5.0 | 17.0 | 0.00 | 0.31 | 0.31 | 47 | 1013.6 |
| 20260509190036 | 67 | 213 | 7.0 | 13.0 | 0.00 | 0.31 | 0.31 | 47 | 1013.4 |
| 20260509184541 | 68 | 221 | 4.0 | 15.0 | 0.00 | 0.31 | 0.31 | 48 | 1013.3 |
| 20260509183037 | 68 | 190 | 7.0 | 15.0 | 0.00 | 0.31 | 0.31 | 49 | 1012.9 |
| 20260509181532 | 67 | 213 | 4.0 | 12.0 | 0.00 | 0.31 | 0.31 | 50 | 1012.7 |
| 20260509180032 | 67 | 167 | 6.0 | 12.0 | 0.00 | 0.31 | 0.31 | 54 | 1012.6 |
| 20260509174534 | 67 | 132 | 4.0 | 9.0 | 0.00 | 0.31 | 0.31 | 55 | 1012.5 |
| 20260509173033 | 67 | 79 | 3.0 | 10.0 | 0.00 | 0.31 | 0.31 | 55 | 1012.4 |
| 20260509171539 | 67 | 96 | 4.0 | 9.0 | 0.00 | 0.31 | 0.31 | 54 | 1012.5 |
| 20260509170034 | 68 | 71 | 2.0 | 11.0 | 0.00 | 0.31 | 0.31 | 52 | 1012.5 |
| 20260509164542 | 68 | 128 | 5.0 | 14.0 | 0.00 | 0.31 | 0.31 | 50 | 1012.5 |
| 20260509163052 | 68 | 145 | 8.0 | 13.0 | 0.00 | 0.31 | 0.31 | 51 | 1012.5 |
| 20260509161546 | 69 | 120 | 5.0 | 12.0 | 0.00 | 0.31 | 0.31 | 51 | 1012.3 |
| 20260509160039 | 70 | 133 | 5.0 | 12.0 | 0.00 | 0.31 | 0.31 | 50 | 1012.1 |
| 20260509154540 | 71 | 104 | 4.0 | 10.0 | 0.00 | 0.31 | 0.31 | 47 | 1011.8 |
| 20260509153037 | 71 | 92 | 4.0 | 11.0 | 0.00 | 0.31 | 0.31 | 48 | 1011.8 |
| 20260509151540 | 71 | 83 | 2.0 | 11.0 | 0.00 | 0.31 | 0.31 | 48 | 1011.6 |
| 20260509150036 | 70 | 72 | 5.0 | 10.0 | 0.00 | 0.31 | 0.31 | 48 | 1011.6 |
| 20260509144535 | 70 | 92 | 3.0 | 10.0 | 0.00 | 0.31 | 0.31 | 49 | 1011.7 |
| 20260509143043 | 70 | 74 | 2.0 | 9.0 | 0.00 | 0.31 | 0.31 | 50 | 1011.8 |
| 20260509141534 | 69 | 78 | 2.0 | 8.0 | 0.00 | 0.31 | 0.31 | 52 | 1011.7 |
| 20260509140041 | 69 | 146 | 4.0 | 8.0 | 0.00 | 0.31 | 0.31 | 54 | 1011.5 |
| 20260509134534 | 68 | 155 | 2.0 | 9.0 | 0.00 | 0.31 | 0.31 | 55 | 1011.5 |
| 20260509133036 | 67 | 142 | 4.0 | 9.0 | 0.00 | 0.31 | 0.31 | 56 | 1011.5 |
| 20260509131535 | 66 | 140 | 2.0 | 8.0 | 0.00 | 0.31 | 0.31 | 58 | 1011.6 |
| 20260509130039 | 66 | 115 | 3.0 | 9.0 | 0.00 | 0.31 | 0.31 | 60 | 1011.7 |
| 20260509124540 | 66 | 90 | 3.0 | 9.0 | 0.00 | 0.31 | 0.31 | 63 | 1011.5 |
| 20260509123040 | 65 | 157 | 3.0 | 8.0 | 0.00 | 0.31 | 0.31 | 63 | 1011.4 |
| 20260509121550 | 64 | 115 | 3.0 | 8.0 | 0.00 | 0.31 | 0.31 | 63 | 1011.4 |
| 20260509120036 | 64 | 139 | 4.0 | 10.0 | 0.00 | 0.31 | 0.31 | 65 | 1011.5 |
| 20260509114554 | 63 | 142 | 3.0 | 7.0 | 0.00 | 0.31 | 0.31 | 65 | 1011.4 |
| 20260509113037 | 63 | 150 | 3.0 | 8.0 | 0.00 | 0.31 | 0.31 | 64 | 1011.8 |
| 20260509111536 | 63 | 84 | 2.0 | 11.0 | 0.00 | 0.31 | 0.31 | 65 | 1011.9 |
| 20260509110036 | 62 | 279 | 2.0 | 10.0 | 0.03 | 0.31 | 0.31 | 66 | 1011.8 |
| 20260509104534 | 62 | 296 | 3.0 | 9.0 | 0.09 | 0.31 | 0.31 | 66 | 1012.4 |
| 20260509103032 | 61 | 240 | 4.0 | 13.0 | 0.12 | 0.31 | 0.31 | 66 | 1012.6 |
| 20260509101538 | 61 | 265 | 7.0 | 12.0 | 0.13 | 0.30 | 0.30 | 64 | 1011.7 |
| 20260509100038 | 62 | 242 | 8.0 | 13.0 | 0.10 | 0.26 | 0.26 | 63 | 1013.0 |
| 20260509094543 | 62 | 291 | 4.0 | 14.0 | 0.06 | 0.24 | 0.22 | 63 | 1012.8 |
| 20260509093034 | 61 | 263 | 8.0 | 16.0 | 0.04 | 0.21 | 0.18 | 63 | 1012.7 |
| 20260509091531 | 61 | 246 | 8.0 | 17.0 | 0.04 | 0.19 | 0.17 | 64 | 1012.1 |
| 20260509090054 | 60 | 273 | 7.0 | 10.0 | 0.03 | 0.18 | 0.16 | 66 | 1011.7 |
| 20260509084543 | 60 | 290 | 7.0 | 14.0 | 0.06 | 0.18 | 0.15 | 66 | 1011.0 |
| 20260509083046 | 60 | 271 | 9.0 | 12.0 | 0.04 | 0.16 | 0.14 | 66 | 1010.6 |
| 20260509081536 | 59 | 236 | 7.0 | 12.0 | 0.05 | 0.14 | 0.12 | 67 | 1011.3 |
| 20260509080049 | 59 | 232 | 9.0 | 14.0 | 0.07 | 0.14 | 0.12 | 67 | 1010.7 |
| 20260509074538 | 59 | 308 | 4.0 | 8.0 | 0.05 | 0.11 | 0.09 | 67 | 1010.5 |
| 20260509073036 | 59 | 294 | 5.0 | 9.0 | 0.06 | 0.11 | 0.09 | 66 | 1010.8 |
| 20260509071535 | 60 | 307 | 3.0 | 6.0 | 0.05 | 0.09 | 0.07 | 64 | 1010.2 |